Temp_Advection
nan nan nan nan nan nan nan nan nan nan nan nan nan nan nan nan nan nan nan nan nan nan nan nan nan nan nan nan nan nan nan nan nan nan nan nan nan nan nan nan nan nan nan
nan -0 0 0 0 0 0 -0 -0 0 0 -0 -0 0 0 -0 0 0 0 0 0 0 0 0 0 0 0 0 0 0 0 0 0 0 0 -0 -0 -0 0 0 0 0 nan
nan -1 0 0 0 -0 -0 -0 -0 0 0 0 1 1 0 -0 -0 -0 -0 0 0 0 0 0 1 0 0 0 0 0 0 0 0 0 0 -0 -0 -0 0 1 0 0 nan
nan -0 -0 0 -0 -0 0 0 -0 0 0 0 1 0 -0 -1 -1 -0 0 1 0 1 0 0 0 1 0 0 0 1 0 0 1 0 -0 -0 -0 0 0 -0 0 1 nan
nan 0 0 0 0 0 0 -0 -0 0 1 1 0 0 -0 -1 -0 -0 -0 0 1 1 0 0 0 0 0 0 1 1 1 1 1 0 0 0 0 1 1 -0 -0 1 nan
nan 0 0 0 0 0 0 0 0 0 0 -0 -0 -0 -0 0 1 0 -0 0 1 1 1 0 0 0 0 0 1 2 1 1 1 1 0 0 -0 1 2 1 0 0 nan
nan 0 0 0 0 0 -0 -0 0 0 -0 0 0 -0 0 1 0 0 0 -0 -0 -0 0 1 1 0 0 1 1 2 1 1 1 1 1 1 1 1 1 1 0 0 nan
nan 0 -0 -0 -0 -0 -0 -0 0 0 0 -0 -0 -0 0 0 -0 -0 0 0 0 0 0 -0 -0 0 0 0 2 3 2 1 1 1 1 1 1 1 1 1 0 0 nan
nan -0 -0 -0 -0 -0 -1 -1 -0 -0 -0 -0 -0 0 0 -0 -0 0 1 0 0 -0 -0 -0 0 1 1 2 3 3 2 1 1 1 2 2 1 1 1 2 0 0 nan
nan -0 -0 -0 -1 -1 -1 -1 -1 -1 -1 -0 -0 0 0 -0 -0 0 0 1 1 1 1 0 1 2 2 2 2 1 1 1 2 2 2 1 1 1 1 0 0 1 nan
nan -0 -0 -0 -0 -0 -1 -1 -1 -1 -1 -1 -1 -0 0 0 -0 -0 0 1 1 1 1 1 1 1 1 1 1 2 2 2 2 2 1 1 1 1 0 0 0 -0 nan
nan -0 -0 -0 -0 -0 -0 -0 -0 -1 -1 -1 -0 0 0 0 0 0 0 1 1 1 1 0 0 1 1 1 2 2 2 2 2 1 1 1 1 1 0 -0 0 -0 nan
nan -0 -0 -0 -0 -0 -0 -0 -0 -0 -1 -0 -0 -0 -0 0 0 0 1 1 1 1 0 0 1 1 1 2 2 2 1 1 1 1 0 0 0 0 0 0 0 -0 nan
nan -0 -0 -0 -0 -0 -0 -0 -1 -1 -1 -1 -0 -0 0 0 0 0 0 0 0 0 1 1 1 2 2 2 1 1 1 1 0 0 0 0 0 0 0 0 -0 0 nan
nan -0 -0 -0 -0 -0 -0 -0 -0 -0 -1 -1 -0 -0 -0 0 0 0 0 0 0 1 1 1 1 2 2 2 1 1 0 0 0 0 0 0 -0 -0 0 -0 -0 0 nan
nan -0 -0 -0 -0 -0 -0 -0 -0 -0 -0 -0 -0 0 0 0 0 0 0 0 0 1 1 1 1 1 1 1 1 0 0 0 0 0 0 -0 -0 0 0 0 -0 -0 nan
nan -0 -0 -0 -0 -0 -0 -0 -1 -0 -0 -0 -0 0 0 0 0 0 0 0 0 1 1 0 0 0 0 0 0 0 0 0 -0 -0 0 0 0 -0 0 -0 -0 0 nan
nan 0 0 -0 -0 -0 -0 -0 0 0 -1 -0 -0 0 0 0 0 0 0 0 0 0 1 1 0 0 0 0 0 0 -0 -0 0 0 0 0 0 0 0 0 -0 -0 nan
nan 0 0 0 -0 -0 -0 -0 -0 -0 0 -0 -0 -0 -0 0 0 0 1 0 0 -0 0 0 0 0 -0 0 0 -0 -0 -0 -0 -0 0 -0 -0 0 0 -0 -1 -1 nan
nan 0 0 0 0 0 -0 -0 -0 -0 0 0 -0 -0 -0 0 0 -0 0 0 0 0 -0 -0 -0 -0 0 0 -0 -0 -0 -0 -0 -0 -0 0 0 0 0 -0 -0 -0 nan
nan 0 0 0 0 -0 -0 -0 0 -0 -0 -0 -0 -0 -0 -0 0 0 -0 0 -0 -0 -0 0 0 0 0 -0 -0 -0 -0 -0 -0 -0 -0 -0 -0 -0 0 0 0 0 nan
nan 0 0 0 0 -0 0 0 -0 -0 -0 -0 0 0 -0 -0 0 -0 -0 0 0 0 -0 -0 -0 -0 -0 -0 -0 -0 -0 -0 -0 -0 -0 -0 -0 -0 -0 0 0 -0 nan
nan -0 0 0 0 0 0 0 -1 -0 -0 -0 -0 -0 -0 0 -0 0 0 -0 0 -0 -0 -0 -0 -0 0 0 0 0 -0 -0 -0 -0 -0 -0 -0 -0 -0 -0 -0 -0 nan
nan -0 -0 0 0 0 0 0 -1 -1 -0 -0 -0 -0 -0 -0 -0 -0 -0 0 -0 -0 -0 -0 -0 -0 -0 -0 -0 -0 -0 -0 -0 -0 -0 -0 -0 -0 -0 -0 -0 -0 nan
nan -0 -1 -0 -0 -0 0 0 -0 -0 -0 -0 -0 -0 0 -0 -0 -0 -0 -0 -0 -0 -0 -0 -0 -0 -0 -0 -0 -0 -0 -0 -0 -0 -0 -0 -0 -0 -0 0 0 0 nan
nan nan nan nan nan nan nan nan nan nan nan nan nan nan nan nan nan nan nan nan nan nan nan nan nan nan nan nan nan nan nan nan nan nan nan nan nan nan nan nan nan nan nan
Wind_Speed
25 24 29 26 26 28 26 30 30 27 29 32 34 34 35 33 31 29 28 25 23 23 25 26 27 29 30 28 25 25 24 22 21 19 18 17 16 17 17 17 17 17 16
25 26 26 25 23 20 24 25 27 32 33 32 31 32 30 33 34 33 31 29 27 26 25 27 29 32 31 30 30 29 27 26 25 23 19 13 17 21 21 21 20 19 19
25 25 26 26 25 24 23 25 25 25 32 35 34 33 34 33 32 32 33 33 32 30 30 29 30 32 33 33 31 31 30 29 28 27 20 10 12 12 17 21 22 22 21
4 9 13 17 21 24 27 26 27 26 24 26 35 39 40 39 36 34 32 35 35 35 34 32 31 32 33 34 34 32 32 32 33 29 29 28 23 11 10 19 22 23 23
17 17 14 9 4 5 14 23 29 30 28 26 26 30 38 39 37 37 36 38 36 37 36 35 34 35 34 34 34 35 36 36 37 33 32 31 30 26 29 24 23 24 23
14 15 14 13 12 10 6 4 12 20 27 27 27 28 30 31 34 36 38 37 36 40 39 39 38 36 35 36 36 36 37 38 37 35 33 34 31 31 30 28 24 20 18
12 12 10 8 7 5 4 3 2 6 13 17 21 26 28 31 33 32 33 36 37 39 38 41 40 39 38 37 38 38 37 37 39 36 34 34 32 30 27 27 24 20 17
11 11 10 9 7 6 6 6 6 6 8 10 14 17 21 27 30 31 30 31 31 31 32 35 40 40 40 38 38 39 38 39 38 37 34 32 31 31 28 19 21 18 15
10 10 9 9 9 10 11 13 15 16 17 17 18 19 20 22 24 25 27 29 30 31 32 33 39 41 42 40 39 38 36 35 35 33 33 30 27 26 24 23 21 20 12
7 7 7 8 10 12 15 18 19 20 22 24 25 26 24 24 25 24 24 25 26 28 31 31 31 35 39 37 36 35 31 32 32 31 26 23 19 18 14 15 15 13 12
6 7 7 9 10 12 17 15 15 16 17 20 23 28 30 29 26 26 25 24 25 25 25 26 27 28 30 31 31 29 29 30 29 25 23 21 17 14 12 10 12 14 15
5 5 6 8 10 15 16 15 14 13 14 15 17 18 21 25 26 25 26 24 22 21 20 20 21 22 24 27 27 27 27 25 24 23 21 18 15 15 14 13 13 14 17
4 5 6 9 13 18 15 14 12 12 11 10 10 11 12 14 18 19 19 18 15 13 13 16 19 21 23 25 25 24 24 21 19 17 15 16 14 10 13 11 11 15 19
3 5 7 8 14 16 14 14 14 13 10 9 7 6 6 6 9 10 9 8 8 10 14 16 19 22 24 24 23 21 20 18 14 12 9 11 11 10 10 12 14 17 18
4 3 5 8 11 13 11 13 14 14 13 14 8 4 2 4 6 7 7 6 6 10 13 17 19 21 21 21 19 18 14 11 10 10 11 9 6 8 12 14 15 17 18
2 3 4 5 9 12 12 11 13 13 12 9 6 5 6 7 8 9 8 7 7 11 13 17 21 22 19 17 15 11 10 10 8 5 3 4 8 9 11 12 14 17 19
1 1 2 3 6 9 9 8 11 12 10 8 8 7 9 10 10 8 7 7 9 12 13 16 16 14 12 13 13 12 9 6 3 1 3 6 9 11 14 15 17 16 16
2 1 1 1 3 6 6 7 9 9 9 9 10 10 7 7 10 8 6 10 13 16 18 18 16 16 16 13 11 8 6 4 2 2 4 7 10 13 15 16 16 18 19
2 2 2 2 3 5 6 6 6 7 6 7 8 6 5 6 9 10 13 16 17 17 17 15 16 15 14 12 9 6 4 1 2 5 8 12 15 16 15 15 19 21 21
4 4 4 4 3 4 5 5 6 8 9 9 7 8 9 10 15 16 17 18 14 16 17 16 14 13 11 9 7 4 3 3 6 8 11 14 15 15 12 15 19 20 18
5 6 6 5 4 3 5 5 8 9 9 10 11 13 14 14 15 16 16 17 17 17 14 13 12 8 7 6 6 6 6 8 10 11 13 14 14 16 16 15 17 16 15
6 6 6 6 5 5 5 9 9 12 13 16 18 18 17 18 19 18 18 17 15 14 12 9 8 7 5 3 4 6 10 11 12 13 14 15 17 17 16 15 14 14 14
7 8 7 7 8 7 8 11 16 18 19 21 21 20 19 17 17 17 15 14 12 9 9 7 5 3 2 4 6 9 11 12 13 14 15 16 16 16 15 13 12 11 12
9 9 8 9 12 11 14 17 20 19 19 20 19 18 17 17 16 14 12 9 8 6 5 3 2 2 4 5 7 10 12 12 13 15 15 16 16 15 13 11 10 11 12
14 11 10 13 15 18 21 21 20 18 18 17 17 16 16 14 13 11 9 7 5 4 2 2 3 5 7 8 10 12 13 15 16 16 15 14 14 12 9 8 9 10 12
16 15 14 18 21 22 21 20 18 17 16 16 16 15 13 12 10 7 5 4 3 2 3 6 7 7 9 11 12 13 15 15 15 14 15 14 13 11 11 10 10 11 13
Wind_Direction
255 253 254 259 257 251 246 239 237 238 234 234 237 241 243 243 244 246 248 245 243 240 235 235 230 228 230 233 232 231 231 233 232 238 245 251 253 256 259 259 256 255 256
265 257 257 257 254 253 242 242 242 236 235 235 236 238 241 246 247 244 245 245 244 243 238 235 231 229 230 230 231 231 232 231 230 233 240 250 254 256 256 255 255 254 256
270 265 259 258 256 252 244 238 239 241 239 238 240 240 240 241 241 242 241 243 242 242 240 238 235 232 232 233 235 234 232 233 231 233 228 219 233 250 255 255 253 252 252
270 257 249 250 251 248 238 236 233 231 237 239 240 241 242 242 242 241 242 242 242 242 241 241 240 236 234 235 236 238 237 235 234 231 235 238 244 241 268 259 248 251 252
88 90 93 96 107 223 233 231 229 230 230 234 241 245 245 247 250 250 249 246 243 241 243 241 242 240 239 239 237 236 236 237 238 238 241 237 241 252 249 256 250 247 252
87 88 86 85 83 82 92 187 227 232 230 231 235 241 247 248 249 249 247 247 246 245 242 241 241 243 241 244 243 238 237 240 242 242 244 246 243 243 240 242 253 249 249
78 76 76 72 66 65 69 75 130 208 223 231 238 241 244 248 251 253 253 253 253 252 250 244 243 242 243 244 245 241 239 239 240 242 245 248 249 250 246 243 244 240 239
61 51 43 32 19 355 324 300 283 265 252 244 241 242 241 244 248 250 253 255 256 255 255 252 246 244 244 245 245 241 238 237 237 239 243 246 246 248 249 239 247 244 237
36 26 19 6 350 330 315 299 284 276 268 258 252 249 246 244 245 247 250 253 255 256 258 252 248 244 244 245 244 243 239 235 236 241 244 245 243 240 241 233 241 251 254
13 4 359 355 347 339 328 314 298 285 276 268 262 256 251 247 245 242 243 248 252 254 257 257 255 250 243 241 240 235 230 228 232 236 236 232 234 239 244 239 241 247 260
346 343 347 348 348 342 334 323 312 302 289 279 268 260 255 252 247 242 238 243 250 253 256 258 253 249 242 234 229 225 222 223 225 223 223 225 223 229 237 256 266 272 272
334 335 340 352 354 350 342 334 331 324 308 290 279 267 259 252 245 241 238 240 248 254 255 252 247 239 227 221 216 215 212 215 215 212 212 215 221 234 247 262 282 304 293
331 332 348 2 4 358 347 348 348 347 340 326 308 293 276 258 241 234 236 241 250 258 245 240 231 218 210 206 204 206 209 208 207 209 218 233 242 257 264 281 284 291 284
318 332 356 5 8 358 353 9 11 10 5 356 341 322 282 254 227 218 219 221 215 225 217 211 207 197 193 193 195 201 202 207 215 215 224 240 248 267 282 286 275 280 289
289 334 2 17 14 2 13 25 29 25 24 14 17 41 75 155 163 168 170 178 205 202 200 193 184 179 182 184 191 195 192 182 193 214 226 241 296 315 281 285 292 298 303
265 333 1 14 30 14 23 37 30 35 34 32 56 87 125 141 144 139 139 148 174 188 186 176 170 166 165 160 155 165 187 197 202 214 286 323 278 279 287 295 296 297 302
267 323 9 25 42 33 35 43 38 38 46 59 74 104 119 130 127 120 125 143 156 156 157 153 153 151 146 158 161 166 160 154 84 12 265 285 293 301 299 293 291 291 289
244 242 117 87 52 58 36 40 64 49 52 64 88 97 111 131 123 121 126 134 143 145 149 144 143 146 143 149 142 139 94 103 176 279 286 286 293 300 302 306 306 307 309
189 191 170 149 93 67 37 30 53 69 72 63 69 84 93 118 119 131 136 127 133 139 139 137 137 134 125 100 96 112 118 76 319 316 319 317 315 311 314 308 305 310 313
160 167 169 159 124 96 65 38 53 70 74 81 83 88 98 112 121 121 124 133 144 140 136 133 128 109 111 133 109 90 43 342 335 324 317 314 314 313 318 305 305 309 316
175 173 166 168 134 103 81 74 76 75 82 91 103 109 114 121 124 127 130 132 134 130 120 106 117 119 93 56 29 13 350 338 331 327 323 321 320 323 321 315 313 312 315
154 163 163 162 140 119 92 92 93 97 107 112 114 118 126 125 124 124 126 123 116 119 121 112 101 89 67 22 334 327 335 332 333 331 328 326 325 324 320 318 314 311 315
147 156 160 157 139 126 108 115 112 113 116 120 122 127 126 123 126 121 125 120 117 112 110 109 99 76 25 343 334 333 331 332 331 328 327 322 325 328 326 323 319 321 324
140 141 154 153 144 132 127 126 124 129 130 129 131 131 132 133 134 128 119 115 110 108 107 97 57 8 344 336 335 333 332 329 325 329 333 333 332 331 330 329 327 328 326
142 137 144 149 143 137 134 135 136 140 143 142 141 141 141 136 130 129 125 118 112 99 73 35 3 354 348 339 332 331 332 335 333 333 330 331 336 341 342 337 334 330 326
155 146 143 145 143 143 144 145 147 152 151 150 151 148 142 137 131 121 120 124 117 70 23 4 357 346 338 338 336 330 329 331 331 334 337 340 343 346 348 346 343 338 331
Height
1481 1483 1485 1488 1489 1492 1493 1496 1499 1502 1504 1506 1509 1510 1512 1515 1518 1519 1522 1525 1526 1528 1530 1532 1535 1537 1539 1542 1545 1547 1548 1550 1551 1554 1554 1554 1554 1555 1555 1555 1554 1554 1554
1474 1477 1479 1480 1482 1484 1486 1490 1492 1494 1497 1499 1502 1503 1506 1509 1511 1513 1517 1519 1521 1523 1525 1525 1528 1530 1532 1535 1538 1540 1543 1545 1546 1548 1550 1550 1550 1549 1549 1550 1549 1550 1550
1467 1468 1472 1474 1474 1476 1480 1483 1485 1488 1490 1492 1496 1497 1499 1501 1503 1505 1508 1511 1514 1516 1517 1519 1521 1524 1526 1528 1531 1533 1536 1539 1541 1542 1545 1544 1543 1544 1544 1544 1544 1545 1545
1461 1462 1464 1466 1466 1468 1471 1475 1479 1481 1483 1485 1486 1488 1490 1491 1495 1499 1502 1503 1506 1508 1510 1512 1514 1516 1519 1521 1524 1528 1530 1533 1534 1537 1538 1538 1537 1539 1541 1539 1538 1539 1539
1463 1462 1463 1464 1463 1463 1464 1468 1471 1474 1476 1477 1478 1481 1482 1484 1489 1492 1495 1496 1498 1500 1502 1504 1506 1508 1511 1514 1517 1520 1522 1525 1528 1530 1531 1531 1530 1531 1533 1534 1532 1531 1532
1464 1464 1464 1465 1464 1463 1464 1465 1466 1467 1469 1470 1472 1474 1474 1477 1480 1483 1486 1488 1490 1492 1494 1496 1499 1502 1503 1506 1508 1511 1515 1517 1520 1523 1524 1525 1525 1522 1524 1527 1529 1529 1525
1464 1465 1465 1465 1463 1463 1464 1465 1464 1463 1463 1464 1465 1468 1469 1470 1472 1475 1477 1479 1481 1483 1485 1489 1491 1494 1496 1498 1500 1503 1506 1509 1512 1515 1517 1518 1519 1519 1519 1520 1519 1523 1519
1464 1465 1463 1463 1462 1462 1462 1462 1461 1460 1460 1460 1461 1461 1462 1463 1465 1467 1469 1471 1473 1475 1477 1479 1482 1486 1489 1491 1493 1495 1499 1502 1505 1508 1509 1510 1511 1512 1513 1514 1520 1520 1512
1464 1463 1462 1461 1460 1459 1458 1457 1455 1455 1455 1456 1456 1456 1457 1458 1459 1460 1462 1463 1465 1466 1468 1471 1473 1476 1479 1482 1485 1488 1492 1496 1499 1502 1503 1504 1505 1507 1507 1509 1508 1514 1508
1463 1462 1460 1459 1458 1456 1455 1452 1449 1448 1448 1448 1448 1449 1451 1452 1453 1454 1455 1456 1457 1459 1461 1463 1464 1467 1470 1474 1477 1481 1485 1489 1492 1494 1496 1500 1502 1504 1507 1508 1507 1507 1505
1460 1459 1458 1456 1454 1453 1450 1447 1444 1442 1441 1440 1439 1440 1442 1443 1445 1447 1448 1450 1451 1452 1454 1456 1458 1460 1464 1468 1472 1476 1480 1483 1486 1489 1492 1494 1496 1502 1500 1502 1504 1502 1500
1457 1456 1455 1453 1452 1449 1446 1443 1440 1437 1435 1433 1432 1432 1433 1435 1438 1440 1442 1443 1444 1446 1447 1450 1453 1456 1459 1463 1467 1472 1476 1480 1482 1484 1487 1490 1492 1496 1493 1493 1498 1498 1500
1453 1452 1451 1450 1448 1445 1442 1440 1437 1434 1431 1430 1428 1428 1429 1430 1432 1434 1436 1438 1440 1442 1445 1447 1449 1451 1455 1459 1464 1469 1474 1478 1481 1484 1486 1490 1489 1491 1494 1493 1494 1494 1493
1450 1449 1447 1446 1445 1442 1440 1438 1434 1432 1430 1428 1427 1427 1427 1427 1429 1431 1434 1436 1438 1440 1442 1444 1447 1449 1453 1457 1462 1467 1472 1476 1481 1482 1484 1487 1488 1486 1489 1490 1490 1490 1487
1447 1446 1445 1444 1444 1442 1439 1437 1435 1431 1430 1428 1428 1427 1428 1429 1430 1432 1434 1435 1437 1440 1442 1443 1447 1450 1453 1457 1462 1466 1470 1475 1478 1481 1482 1483 1483 1482 1488 1487 1485 1485 1480
1443 1443 1443 1443 1442 1441 1439 1437 1435 1433 1431 1430 1430 1430 1430 1431 1432 1433 1435 1436 1439 1441 1444 1445 1447 1452 1454 1458 1463 1467 1471 1474 1477 1478 1479 1482 1481 1482 1483 1481 1479 1478 1473
1441 1441 1441 1440 1440 1440 1439 1438 1437 1435 1434 1433 1433 1433 1433 1434 1435 1437 1437 1439 1442 1445 1447 1449 1452 1454 1459 1462 1465 1467 1471 1473 1475 1478 1479 1480 1480 1479 1479 1478 1475 1472 1470
1440 1440 1440 1440 1440 1440 1440 1439 1438 1437 1436 1436 1436 1436 1437 1438 1438 1440 1440 1442 1444 1448 1452 1454 1456 1458 1461 1466 1467 1469 1471 1474 1475 1476 1478 1478 1477 1476 1475 1472 1468 1466 1464
1439 1439 1439 1440 1440 1441 1440 1440 1439 1438 1438 1438 1439 1439 1441 1441 1442 1443 1444 1446 1450 1454 1457 1458 1462 1463 1465 1467 1468 1470 1472 1473 1474 1474 1473 1473 1472 1472 1469 1467 1463 1460 1458
1438 1439 1439 1440 1440 1440 1440 1440 1440 1440 1440 1440 1441 1443 1445 1446 1448 1449 1450 1453 1457 1460 1463 1464 1465 1466 1467 1468 1469 1470 1471 1472 1472 1472 1471 1469 1468 1466 1464 1461 1458 1455 1454
1437 1438 1439 1439 1439 1440 1440 1441 1441 1440 1441 1443 1444 1447 1449 1451 1454 1455 1457 1459 1462 1463 1466 1466 1467 1468 1468 1469 1470 1470 1471 1470 1469 1468 1467 1465 1463 1461 1459 1457 1454 1451 1449
1437 1437 1438 1439 1439 1440 1441 1441 1441 1442 1444 1446 1448 1451 1454 1456 1458 1460 1463 1464 1465 1467 1468 1468 1469 1469 1469 1470 1471 1471 1469 1467 1466 1464 1463 1461 1459 1457 1455 1452 1449 1447 1444
1436 1437 1438 1438 1439 1441 1442 1442 1444 1446 1448 1450 1453 1456 1459 1461 1463 1465 1466 1467 1469 1469 1469 1470 1470 1471 1471 1471 1470 1469 1467 1465 1463 1462 1460 1458 1455 1453 1450 1447 1445 1443 1441
1435 1436 1437 1439 1440 1442 1443 1445 1447 1450 1453 1455 1457 1460 1463 1464 1466 1467 1468 1470 1470 1470 1471 1471 1471 1471 1470 1469 1468 1466 1464 1463 1461 1459 1456 1454 1451 1448 1446 1444 1442 1440 1438
1434 1436 1437 1439 1441 1443 1445 1448 1451 1454 1457 1459 1461 1463 1465 1467 1468 1469 1470 1471 1471 1471 1471 1471 1470 1469 1468 1467 1465 1464 1461 1459 1457 1455 1453 1450 1448 1445 1443 1442 1440 1438 1436
1434 1436 1438 1441 1443 1446 1449 1451 1454 1457 1459 1461 1464 1466 1467 1468 1469 1470 1471 1471 1471 1471 1470 1469 1469 1468 1466 1464 1462 1460 1459 1457 1454 1452 1449 1447 1444 1442 1440 1439 1437 1436 1433